Weather Roundup
Issued by NWS

Home | Current Version | Previous Version | Graphics & Text | Print | Product List | Glossary Off
Versions: 1 2 3 4 5 6 7 8 9 10 11 12 13 14 15 16 17 18 19 20 21 22 23 24 25 26 27 28 29 30 31 32 33 34 35 36 37 38 39 40 41 42 43 44 45 46 47 48 49 50

000
NZUS93 KARX 031059
HRRWXR

CURRENT HOURLY OBSERVATIONS ACROSS
MUCH OF THE UPPER MISSISSIPPI VALLEY
NATIONAL WEATHER SERVICE LA CROSSE WI
600 AM CDT FRI JUL 03 2015


...SOUTHEAST MINNESOTA...


CITY           SKY/WX    TMP DP  RH WIND       PRES   REMARKS
ROCHESTER      CLEAR     53  51  93 SW5       30.00F
ROCHESTER/MAYO FAIR      58  54  88 CALM      30.00F
WINONA         CLEAR     55  55 100 CALM      29.99F
AUSTIN         CLEAR     55  54  94 CALM      30.00F
ALBERT LEA     CLEAR     54  54 100 CALM      30.01S
DODGE CENTER   CLEAR     55  54  94 W5        30.00S
PRESTON        CLEAR     55  51  83 SW3       30.01S
OWATONNA       CLEAR     55  52  88 S3        30.00F
FARIBAULT      CLEAR     54  52  94 CALM      29.99F
$$

...ELSEWHERE IN MINNESOTA...


CITY           SKY/WX    TMP DP  RH WIND       PRES   REMARKS
MINNEAPOLIS    PTCLDY    60  56  86 SW5       29.98S
INTNL FALLS    CLOUDY    63  57  81 W5        29.86R
DULUTH         CLOUDY    63  52  67 W13       29.91F
RED WING       CLEAR     54  52  94 CALM      29.97F
REDWOOD FALLS  CLEAR     53  49  86 W3        29.99R
MANKATO        CLEAR     55  52  88 S3        29.99S
WORTHINGTON      N/A     54  48  82 SW5       30.02S VSB<1/4
FAIRMONT       CLEAR     55  46  71 CALM      30.00S
$$

...SOUTHWEST WISCONSIN...


CITY           SKY/WX    TMP DP  RH WIND       PRES   REMARKS
LA CROSSE      CLEAR     55  53  93 SE5       30.00S
PRAIRIE DU CHI CLOUDY    54  52  95 CALM      30.01R FOG
BOSCOBEL       FOG       55  54  96 CALM      30.02R VSB<1/4
LONE ROCK      NOT AVBL
PLATTEVILLE    MOCLDY    53  51  91 CALM      30.00S
FORT MC COY    CLEAR     43  42  96 CALM      30.02S
CAMP DOUGLAS   FOG       45  45 100 CALM      30.00S VSB 1/4
VIROQUA        FAIR      53  50  90 CALM      30.02S
WIS DELLS      PTCLDY    49  47  93 CALM      30.02R
$$

...ELSEWHERE IN WISCONSIN...


CITY           SKY/WX    TMP DP  RH WIND       PRES   REMARKS
MILWAUKEE      PTCLDY    54  47  77 CALM      30.00S
MADISON        MOCLDY    49  47  93 VRB3      30.01R
GREEN BAY      CLEAR     52  49  89 W3        30.00S
EAU CLAIRE     CLEAR     55  53  93 CALM      29.97F FOG
BLACK RVR FLS  FOG       44  44 100 CALM      29.99F VSB 1/4
MEDFORD        CLEAR     53  49  87 CALM      30.00S
WAUSAU         CLEAR     51  49  92 VRB3      29.99F
WIS RAPIDS     CLEAR     48  46  93 CALM      30.01F
MARSHFIELD     CLEAR     52  48  86 CALM      30.00F
RICE LAKE      CLEAR     53  51  95 CALM      29.99S
$$

...NORTHEAST IOWA...


CITY           SKY/WX    TMP DP  RH WIND       PRES   REMARKS
DECORAH          N/A    N/A N/A N/A MISG        N/A
MASON CITY     CLEAR     52  50  93 CALM      30.03R
CHARLES CITY   CLEAR     54  54 100 N5        30.01S
OELWEIN          N/A     52  50  93 NE6       30.00S
$$

...ELSEWHERE IN IOWA...


CITY           SKY/WX    TMP DP  RH WIND       PRES   REMARKS
DES MOINES     PTCLDY    60  54  80 N3        29.97S
IOWA CITY      MOCLDY    60  55  83 NE5       29.98R
FORT DODGE     CLEAR     50  46  87 CALM      30.01S
$$

...NORTHERN ILLINOIS...


CITY           SKY/WX    TMP DP  RH WIND       PRES   REMARKS
CHICAGO-OHARE  CLOUDY    57  52  83 N6        29.96S
CHICAGO-MIDWAY MOCLDY    62  57  83 N3        29.96R
MOLINE         CLOUDY    59  53  80 E5        29.96S
ROCKFORD       CLOUDY    56  48  74 N7        29.99S
PEORIA         CLOUDY    63  55  75 N3        29.94R
$$

NOTE: "FAIR" INDICATES FEW OR NO CLOUDS BELOW 12,000 FEET WITH NO
SIGNIFICANT WEATHER AND/OR OBSTRUCTIONS TO VISIBILITY. WIND
SPEEDS ARE IN MILES-PER-HOUR.



USA.gov is the U.S. government's official web portal to all federal, state and local government web resources and services.